Regional Weather Roundup
Issued by NWS

Home | Current Version | Previous Version | Text Only | Print | Product List | Glossary Off
Versions: 1 2 3 4 5 6 7 8 9 10 11 12 13 14 15 16 17 18 19 20 21 22 23 24 25 26 27 28 29 30 31 32 33 34 35 36 37 38 39 40 41 42 43 44 45 46 47 48 49 50

000
ASUS43 KOAX 281002
RWRNE

WEATHER ROUNDUP FOR NEBRASKA
NATIONAL WEATHER SERVICE OMAHA NE
400 AM CST SUN DEC 28 2014

NOTES: SATELLITE DATA IS BEING USED TO AUGMENT CLOUD COVER ABOVE
       12000 FEET.
       "FAIR" INDICATES FEW OR NO CLOUDS BELOW 12,000 FEET WITH NO
       SIGNIFICANT WEATHER AND/OR OBSTRUCTIONS TO VISIBILITY.

  * THESE STATIONS DO NOT REPORT WEATHER SUCH AS RAIN...SNOW OR FOG.

NEZ001>004-019>022-054>056-281100-
NEBRASKA PANHANDLE

CITY           SKY/WX    TMP DP  RH WIND       PRES   REMARKS
SCOTTSBLUFF    PTCLDY    -3  -7  82 SE3       30.00F
ALLIANCE       PTCLDY    -4  -8  83 CALM      29.99S
CHADRON        PTCLDY     4  -1  80 W13       30.01F WCI -13
SIDNEY         MOCLDY    -3  -8  79 NW8       30.01F WCI -18
$$

NEZ057>060-069>072-079>082-281100-
SOUTHWEST NEBRASKA

CITY           SKY/WX    TMP DP  RH WIND       PRES   REMARKS
NORTH PLATTE   MOCLDY     0  -3  87 NW6       30.09F WCI -12
IMPERIAL       MOCLDY     2  -5  72 W3        30.07F
LEXINGTON      PTCLDY     2  -2  85 NW5       30.11F WCI  -8
MCCOOK         PTCLDY     6   2  83 W10       30.12F WCI  -9
$$

NEZ005>010-023>029-035>040-094-281100-
NORTH CENTRAL NEBRASKA

CITY           SKY/WX    TMP DP  RH WIND       PRES   REMARKS
VALENTINE      PTCLDY     1  -4  79 W6        30.05S WCI -10
AINSWORTH      PTCLDY     7   3  83 W8        30.04S WCI  -6
BROKEN BOW     PTCLDY    12   5  73 W3        30.07F
ORD            PTCLDY     2   0  91 NW3       30.09F
$$

NEZ041-046>049-061>064-073>077-083>087-281100-
SOUTH CENTRAL NEBRASKA

CITY           SKY/WX    TMP DP  RH WIND       PRES   REMARKS
GRAND ISLAND     N/A     13   7  77 W9        30.13F WCI   1
AURORA         CLEAR     12   8  84 SW9       30.11F WCI   0
HASTINGS       CLEAR     12   7  80 W8        30.11F WCI   0
HEBRON         CLEAR     17  12  82 SW7       30.17F WCI   7
HOLDREGE       PTCLDY    13   8  78 W6        30.11F WCI   4
KEARNEY *      PTCLDY    12   9  85 SW3       30.11F
YORK           CLEAR     12   9  85 W8        30.13F WCI   1
$$

NEZ011>018-030>034-042>045-281100-
NORTHEAST NEBRASKA

CITY           SKY/WX    TMP DP  RH WIND       PRES   REMARKS
NORFOLK        CLEAR      7   4  87 CALM      30.09F
ALBION         PTCLDY    11   6  80 NW5       30.10F WCI   3
BLAIR          CLEAR     17  13  85 SW7       30.13S WCI   7
COLUMBUS *     CLEAR     12   3  67 W6        30.13F WCI   3
FREMONT        CLEAR     16  12  84 SW5       30.14F WCI   9
TEKAMAH        CLEAR     12   8  84 S5        30.15F WCI   4
WAYNE          CLEAR      8   4  86 CALM      30.11S
$$

NEZ050>053-065>068-078-088>093-281100-
SOUTHEAST NEBRASKA

CITY           SKY/WX    TMP DP  RH WIND       PRES   REMARKS
LINCOLN        CLEAR     17  12  80 SW6       30.17F WCI   9
OMAHA EPPLEY   CLEAR     18  14  84 S8        30.18F WCI   8
BEATRICE       CLEAR     15  11  87 SW5       30.17F WCI   7
FALLS CITY     CLEAR     16  13  88 CALM      30.20F
NEBRASKA CITY  CLEAR     17  13  84 SW8       30.17F WCI   6
$$

NEZ044-045-051>053-067-281100-
OMAHA AREA

CITY           SKY/WX    TMP DP  RH WIND       PRES   REMARKS
OMAHA EPPLEY   CLEAR     18  14  84 S8        30.18F WCI   8
BLAIR          CLEAR     17  13  85 SW7       30.13S WCI   7
FREMONT        CLEAR     16  12  84 SW5       30.14F WCI   9
OFFUTT AFB     CLEAR     15  12  87 CALM      30.17S
WAHOO          FAIR      17  12  79 W9        30.13F WCI   6
$$



USA.gov is the U.S. government's official web portal to all federal, state and local government web resources and services.